Year,Month,Day,Hour,Minute,Value (Times are PST for temperature in C)
2012,06,19,00,00,9.30
2012,06,19,00,01,9.30
2012,06,19,00,02,9.30
2012,06,19,00,03,9.30
2012,06,19,00,04,9.30
2012,06,19,00,05,9.30
2012,06,19,00,06,9.30
2012,06,19,00,07,9.30
2012,06,19,00,08,9.30
2012,06,19,00,09,9.30
2012,06,19,00,10,9.30
2012,06,19,00,11,9.30
2012,06,19,00,12,9.30
2012,06,19,00,17,9.30
2012,06,19,00,18,9.40
2012,06,19,00,19,9.30
2012,06,19,00,20,9.40
2012,06,19,00,21,9.40
2012,06,19,00,22,9.40
2012,06,19,00,23,9.40
2012,06,19,00,24,9.40
2012,06,19,00,25,9.40
2012,06,19,00,26,9.40
2012,06,19,00,27,9.40
2012,06,19,00,28,9.40
2012,06,19,00,29,9.40
2012,06,19,00,30,9.40
2012,06,19,00,31,9.40
2012,06,19,00,32,9.40
2012,06,19,00,33,9.30
2012,06,19,00,34,9.40
2012,06,19,00,35,9.30
2012,06,19,00,36,9.30
2012,06,19,00,37,9.30
2012,06,19,00,38,9.30
2012,06,19,00,39,9.30
2012,06,19,00,40,9.30
2012,06,19,00,41,9.30
2012,06,19,00,42,9.30
2012,06,19,00,43,9.30
2012,06,19,00,44,9.30
2012,06,19,00,45,9.30
2012,06,19,00,46,9.30
2012,06,19,00,47,9.30
2012,06,19,00,48,9.30
2012,06,19,00,49,9.30
2012,06,19,00,50,9.30
2012,06,19,00,51,9.30
2012,06,19,00,52,9.30
2012,06,19,00,53,9.30
2012,06,19,00,54,9.30
2012,06,19,00,55,9.30
2012,06,19,00,56,9.30
2012,06,19,00,57,9.30
2012,06,19,00,58,9.30
2012,06,19,00,59,9.30
2012,06,19,01,00,9.30
2012,06,19,01,01,9.30
2012,06,19,01,02,9.30
2012,06,19,01,03,9.30
2012,06,19,01,04,9.30
2012,06,19,01,05,9.30
2012,06,19,01,06,9.30
2012,06,19,01,07,9.30
2012,06,19,01,08,9.30
2012,06,19,01,09,9.30
2012,06,19,01,10,9.30
2012,06,19,01,11,9.30
2012,06,19,01,12,9.30
2012,06,19,01,13,9.30
2012,06,19,01,14,9.30
2012,06,19,01,15,9.30
2012,06,19,01,16,9.30
2012,06,19,01,17,9.30
2012,06,19,01,18,9.30
2012,06,19,01,19,9.30
2012,06,19,01,20,9.30
2012,06,19,01,21,9.30
2012,06,19,01,22,9.30
2012,06,19,01,23,9.30
2012,06,19,01,24,9.30
2012,06,19,01,25,9.30
2012,06,19,01,26,9.30
2012,06,19,01,27,9.30
2012,06,19,01,28,9.30
2012,06,19,01,29,9.30
2012,06,19,01,30,9.30
2012,06,19,01,31,9.30
2012,06,19,01,32,9.30
2012,06,19,01,33,9.30
2012,06,19,01,34,9.40
2012,06,19,01,35,9.40
2012,06,19,01,36,9.40
2012,06,19,01,37,9.40
2012,06,19,01,38,9.40
2012,06,19,01,39,9.40
2012,06,19,01,40,9.40
2012,06,19,01,41,9.40
2012,06,19,01,42,9.40
2012,06,19,01,43,9.30
2012,06,19,01,44,9.30
2012,06,19,01,45,9.30
2012,06,19,01,46,9.30
2012,06,19,01,47,9.30
2012,06,19,01,48,9.30
2012,06,19,01,49,9.30
2012,06,19,01,50,9.30
2012,06,19,01,51,9.30
2012,06,19,01,52,9.30
2012,06,19,01,53,9.30
2012,06,19,01,54,9.30
2012,06,19,01,55,9.40
2012,06,19,01,56,9.40
2012,06,19,01,57,9.40
2012,06,19,01,58,9.30
2012,06,19,01,59,9.40
2012,06,19,02,00,9.40
2012,06,19,02,01,9.40
2012,06,19,02,02,9.40
2012,06,19,02,03,9.40
2012,06,19,02,04,9.40
2012,06,19,02,05,9.40
2012,06,19,02,06,9.40
2012,06,19,02,07,9.40
2012,06,19,02,08,9.40
2012,06,19,02,09,9.30
2012,06,19,02,10,9.30
2012,06,19,02,11,9.30
2012,06,19,02,12,9.30
2012,06,19,02,13,9.30
2012,06,19,02,14,9.30
2012,06,19,02,15,9.30
2012,06,19,02,16,9.30
2012,06,19,02,17,9.30
2012,06,19,02,18,9.30
2012,06,19,02,19,9.30
2012,06,19,02,20,9.30
2012,06,19,02,21,9.30
2012,06,19,02,22,9.30
2012,06,19,02,23,9.30
2012,06,19,02,24,9.30
2012,06,19,02,25,9.30
2012,06,19,02,26,9.30
2012,06,19,02,27,9.30
2012,06,19,02,28,9.30
2012,06,19,02,29,9.30
2012,06,19,02,30,9.30
2012,06,19,02,31,9.30
2012,06,19,02,32,9.30
2012,06,19,02,33,9.30
2012,06,19,02,34,9.30
2012,06,19,02,35,9.30
2012,06,19,02,36,9.30
2012,06,19,02,37,9.30
2012,06,19,02,38,9.30
2012,06,19,02,39,9.30
2012,06,19,02,40,9.30
2012,06,19,02,41,9.30
2012,06,19,02,42,9.30
2012,06,19,02,43,9.30
2012,06,19,02,44,9.30
2012,06,19,02,45,9.30
2012,06,19,02,46,9.30
2012,06,19,02,47,9.30
2012,06,19,02,48,9.30
2012,06,19,02,49,9.30
2012,06,19,02,50,9.30
2012,06,19,02,51,9.30
2012,06,19,02,52,9.30
2012,06,19,02,53,9.30
2012,06,19,02,54,9.30
2012,06,19,02,55,9.30
2012,06,19,02,56,9.30
2012,06,19,02,57,9.30
2012,06,19,02,58,9.30
2012,06,19,02,59,9.30
2012,06,19,03,00,9.30
2012,06,19,03,01,9.30
2012,06,19,03,02,9.30
2012,06,19,03,03,9.30
2012,06,19,03,04,9.30
2012,06,19,03,05,9.30
2012,06,19,03,06,9.30
2012,06,19,03,07,9.30
2012,06,19,03,08,9.30
2012,06,19,03,09,9.30
2012,06,19,03,10,9.20
2012,06,19,03,11,9.20
2012,06,19,03,12,9.20
2012,06,19,03,13,9.20
2012,06,19,03,14,9.20
2012,06,19,03,15,9.20
2012,06,19,03,16,9.20
2012,06,19,03,17,9.20
2012,06,19,03,18,9.20
2012,06,19,03,19,9.20
2012,06,19,03,20,9.20
2012,06,19,03,21,9.20
2012,06,19,03,22,9.20
2012,06,19,03,23,9.20
2012,06,19,03,24,9.20
2012,06,19,03,25,9.20
2012,06,19,03,26,9.20
2012,06,19,03,27,9.20
2012,06,19,03,28,9.20
2012,06,19,03,29,9.20
2012,06,19,03,30,9.20
2012,06,19,03,31,9.20
2012,06,19,03,32,9.20
2012,06,19,03,33,9.20
2012,06,19,03,34,9.20
2012,06,19,03,35,9.20
2012,06,19,03,36,9.20
2012,06,19,03,37,9.20
2012,06,19,03,38,9.20
2012,06,19,03,39,9.20
2012,06,19,03,40,9.20
2012,06,19,03,41,9.20
2012,06,19,03,42,9.20
2012,06,19,03,43,9.20
2012,06,19,03,44,9.20
2012,06,19,03,45,9.20
2012,06,19,03,46,9.20
2012,06,19,03,47,9.20
2012,06,19,03,48,9.20
2012,06,19,03,49,9.20
2012,06,19,03,50,9.20
2012,06,19,03,51,9.20
2012,06,19,03,52,9.20
2012,06,19,03,53,9.20
2012,06,19,03,54,9.20
2012,06,19,03,55,9.20
2012,06,19,03,56,9.20
2012,06,19,03,57,9.20
2012,06,19,03,58,9.20
2012,06,19,03,59,9.20
2012,06,19,04,00,9.20
2012,06,19,04,01,9.20
2012,06,19,04,02,9.20
2012,06,19,04,03,9.20
2012,06,19,04,04,9.20
2012,06,19,04,05,9.20
2012,06,19,04,06,9.20
2012,06,19,04,07,9.20
2012,06,19,04,08,9.20
2012,06,19,04,09,9.20
2012,06,19,04,10,9.20
2012,06,19,04,11,9.20
2012,06,19,04,12,9.20
2012,06,19,04,13,9.20
2012,06,19,04,14,9.20
2012,06,19,04,15,9.20
2012,06,19,04,16,9.20
2012,06,19,04,17,9.20
2012,06,19,04,18,9.20
2012,06,19,04,19,9.20
2012,06,19,04,20,9.20
2012,06,19,04,21,9.20
2012,06,19,04,22,9.20
2012,06,19,04,23,9.20
2012,06,19,04,24,9.20
2012,06,19,04,25,9.20
2012,06,19,04,26,9.20
2012,06,19,04,27,9.20
2012,06,19,04,28,9.20
2012,06,19,04,29,9.20
2012,06,19,04,30,9.20
2012,06,19,04,31,9.20
2012,06,19,04,32,9.20
2012,06,19,04,33,9.20
2012,06,19,04,34,9.20
2012,06,19,04,35,9.20
2012,06,19,04,36,9.20
2012,06,19,04,37,9.20
2012,06,19,04,38,9.20
2012,06,19,04,39,9.20
2012,06,19,04,40,9.20
2012,06,19,04,41,9.20
2012,06,19,04,42,9.20
2012,06,19,04,43,9.20
2012,06,19,04,44,9.20
2012,06,19,04,45,9.20
2012,06,19,04,46,9.20
2012,06,19,04,47,9.20
2012,06,19,04,48,9.20
2012,06,19,04,49,9.20
2012,06,19,04,50,9.20
2012,06,19,04,51,9.20
2012,06,19,04,52,9.20
2012,06,19,04,53,9.20
2012,06,19,04,54,9.20
2012,06,19,04,55,9.20
2012,06,19,04,56,9.20
2012,06,19,04,57,9.20
2012,06,19,04,58,9.20
2012,06,19,04,59,9.20
2012,06,19,05,00,9.20
2012,06,19,05,01,9.20
2012,06,19,05,02,9.20
2012,06,19,05,03,9.20
2012,06,19,05,04,9.20
2012,06,19,05,05,9.20
2012,06,19,05,06,9.20
2012,06,19,05,07,9.20
2012,06,19,05,08,9.20
2012,06,19,05,09,9.20
2012,06,19,05,10,9.20
2012,06,19,05,11,9.10
2012,06,19,05,12,9.20
2012,06,19,05,13,9.20
2012,06,19,05,14,9.20
2012,06,19,05,15,9.20
2012,06,19,05,16,9.20
2012,06,19,05,17,9.20
2012,06,19,05,18,9.20
2012,06,19,05,19,9.20
2012,06,19,05,20,9.20
2012,06,19,05,21,9.20
2012,06,19,05,22,9.20
2012,06,19,05,23,9.20
2012,06,19,05,24,9.20
2012,06,19,05,25,9.20
2012,06,19,05,26,9.20
2012,06,19,05,27,9.20
2012,06,19,05,28,9.20
2012,06,19,05,29,9.20
2012,06,19,05,30,9.20
2012,06,19,05,31,9.20
2012,06,19,05,32,9.20
2012,06,19,05,33,9.20
2012,06,19,05,34,9.20
2012,06,19,05,35,9.20
2012,06,19,05,36,9.20
2012,06,19,05,37,9.20
2012,06,19,05,38,9.20
2012,06,19,05,39,9.20
2012,06,19,05,40,9.20
2012,06,19,05,41,9.20
2012,06,19,05,42,9.20
2012,06,19,05,43,9.20
2012,06,19,05,44,9.20
2012,06,19,05,45,9.20
2012,06,19,05,46,9.20
2012,06,19,05,47,9.20
2012,06,19,05,48,9.20
2012,06,19,05,49,9.20
2012,06,19,05,50,9.20
2012,06,19,05,51,9.20
2012,06,19,05,52,9.20
2012,06,19,05,53,9.20
2012,06,19,05,54,9.20
2012,06,19,05,55,9.20
2012,06,19,05,56,9.20
2012,06,19,05,57,9.20
2012,06,19,05,58,9.30
2012,06,19,05,59,9.30
2012,06,19,06,00,9.30
2012,06,19,06,01,9.30
2012,06,19,06,02,9.30
2012,06,19,06,03,9.30
2012,06,19,06,04,9.30
2012,06,19,06,05,9.30
2012,06,19,06,06,9.30
2012,06,19,06,07,9.30
2012,06,19,06,08,9.30
2012,06,19,06,09,9.30
2012,06,19,06,10,9.30
2012,06,19,06,11,9.30
2012,06,19,06,12,9.30
2012,06,19,06,13,9.30
2012,06,19,06,14,9.30
2012,06,19,06,15,9.30
2012,06,19,06,16,9.30
2012,06,19,06,17,9.30
2012,06,19,06,18,9.30
2012,06,19,06,19,9.30
2012,06,19,06,20,9.30
2012,06,19,06,21,9.30
2012,06,19,06,22,9.30
2012,06,19,06,23,9.30
2012,06,19,06,24,9.30
2012,06,19,06,25,9.30
2012,06,19,06,26,9.30
2012,06,19,06,27,9.30
2012,06,19,06,28,9.30
2012,06,19,06,29,9.30
2012,06,19,06,30,9.30
2012,06,19,06,31,9.30
2012,06,19,06,32,9.30
2012,06,19,06,33,9.30
2012,06,19,06,34,9.30
2012,06,19,06,35,9.30
2012,06,19,06,36,9.30
2012,06,19,06,37,9.30
2012,06,19,06,38,9.30
2012,06,19,06,39,9.30
2012,06,19,06,40,9.30
2012,06,19,06,41,9.30
2012,06,19,06,42,9.40
2012,06,19,06,43,9.40
2012,06,19,06,44,9.30
2012,06,19,06,45,9.30
2012,06,19,06,46,9.30
2012,06,19,06,47,9.30
2012,06,19,06,48,9.40
2012,06,19,06,49,9.40
2012,06,19,06,50,9.40
2012,06,19,06,51,9.40
2012,06,19,06,52,9.40
2012,06,19,06,53,9.40
2012,06,19,06,54,9.40
2012,06,19,06,55,9.50
2012,06,19,06,56,9.50
2012,06,19,06,57,9.50
2012,06,19,06,58,9.50
2012,06,19,06,59,9.50
2012,06,19,07,00,9.50
2012,06,19,07,01,9.50
2012,06,19,07,02,9.50
2012,06,19,07,03,9.50
2012,06,19,07,04,9.50
2012,06,19,07,05,9.50
2012,06,19,07,06,9.50
2012,06,19,07,07,9.50
2012,06,19,07,08,9.50
2012,06,19,07,09,9.50
2012,06,19,07,10,9.50
2012,06,19,07,11,9.50
2012,06,19,07,12,9.50
2012,06,19,07,13,9.50
2012,06,19,07,14,9.50
2012,06,19,07,15,9.60
2012,06,19,07,16,9.60
2012,06,19,07,17,9.60
2012,06,19,07,18,9.60
2012,06,19,07,19,9.60
2012,06,19,07,20,9.60
2012,06,19,07,21,9.60
2012,06,19,07,22,9.60
2012,06,19,07,23,9.60
2012,06,19,07,24,9.60
2012,06,19,07,25,9.70
2012,06,19,07,26,9.70
2012,06,19,07,27,9.70
2012,06,19,07,28,9.70
2012,06,19,07,29,9.70
2012,06,19,07,30,9.70
2012,06,19,07,31,9.70
2012,06,19,07,32,9.70
2012,06,19,07,33,9.70
2012,06,19,07,34,9.70
2012,06,19,07,35,9.70
2012,06,19,07,36,9.70
2012,06,19,07,37,9.70
2012,06,19,07,38,9.70
2012,06,19,07,39,9.70
2012,06,19,07,40,9.80
2012,06,19,07,41,9.80
2012,06,19,07,42,9.80
2012,06,19,07,43,9.80
2012,06,19,07,44,9.80
2012,06,19,07,45,9.80
2012,06,19,07,46,9.80
2012,06,19,07,47,9.80
2012,06,19,07,48,9.80
2012,06,19,07,49,9.80
2012,06,19,07,50,9.80
2012,06,19,07,51,9.80
2012,06,19,07,52,9.90
2012,06,19,07,53,9.90
2012,06,19,07,54,9.90
2012,06,19,07,55,9.90
2012,06,19,07,56,9.90
2012,06,19,07,57,9.90
2012,06,19,07,58,9.90
2012,06,19,07,59,9.90
2012,06,19,08,00,9.90
2012,06,19,08,01,10.00
2012,06,19,08,02,10.00
2012,06,19,08,03,10.00
2012,06,19,08,04,10.00
2012,06,19,08,05,10.00
2012,06,19,08,06,10.10
2012,06,19,08,07,10.10
2012,06,19,08,08,10.10
2012,06,19,08,09,10.10
2012,06,19,08,10,10.10
2012,06,19,08,11,10.10
2012,06,19,08,12,10.10
2012,06,19,08,13,10.10
2012,06,19,08,14,10.20
2012,06,19,08,15,10.20
2012,06,19,08,16,10.20
2012,06,19,08,17,10.20
2012,06,19,08,18,10.20
2012,06,19,08,19,10.30
2012,06,19,08,20,10.30
2012,06,19,08,21,10.30
2012,06,19,08,22,10.40
2012,06,19,08,23,10.40
2012,06,19,08,24,10.50
2012,06,19,08,25,10.50
2012,06,19,08,26,10.60
2012,06,19,08,27,10.50
2012,06,19,08,28,10.50
2012,06,19,08,29,10.50
2012,06,19,08,30,10.40
2012,06,19,08,31,10.40
2012,06,19,08,32,10.40
2012,06,19,08,33,10.40
2012,06,19,08,34,10.40
2012,06,19,08,35,10.40
2012,06,19,08,36,10.50
2012,06,19,08,37,10.50
2012,06,19,08,38,10.50
2012,06,19,08,39,10.50
2012,06,19,08,40,10.50
2012,06,19,08,41,10.60
2012,06,19,08,42,10.60
2012,06,19,08,43,10.70
2012,06,19,08,44,10.70
2012,06,19,08,45,10.70
2012,06,19,08,46,10.70
2012,06,19,08,47,10.70
2012,06,19,08,48,10.70
2012,06,19,08,49,10.70
2012,06,19,08,50,10.80
2012,06,19,08,51,10.80
2012,06,19,08,52,10.80
2012,06,19,08,53,10.80
2012,06,19,08,54,10.90
2012,06,19,08,55,10.90
2012,06,19,08,56,10.90
2012,06,19,08,57,11.00
2012,06,19,08,58,11.00
2012,06,19,08,59,11.00
2012,06,19,09,00,11.00
2012,06,19,09,01,11.00
2012,06,19,09,02,11.00
2012,06,19,09,03,10.90
2012,06,19,09,04,11.00
2012,06,19,09,05,11.00
2012,06,19,09,06,11.00
2012,06,19,09,07,11.10
2012,06,19,09,08,11.20
2012,06,19,09,09,11.20
2012,06,19,09,10,11.30
2012,06,19,09,11,11.30
2012,06,19,09,12,11.30
2012,06,19,09,13,11.30
2012,06,19,09,14,11.40
2012,06,19,09,15,11.40
2012,06,19,09,16,11.40
2012,06,19,09,17,11.40
2012,06,19,09,18,11.50
2012,06,19,09,19,11.50
2012,06,19,09,20,11.50
2012,06,19,09,21,11.60
2012,06,19,09,22,11.60
2012,06,19,09,23,11.60
2012,06,19,09,24,11.60
2012,06,19,09,25,11.60
2012,06,19,09,26,11.60
2012,06,19,09,27,11.60
2012,06,19,09,28,11.60
2012,06,19,09,29,11.70
2012,06,19,09,30,11.80
2012,06,19,09,31,11.80
2012,06,19,09,32,11.80
2012,06,19,09,33,11.80
2012,06,19,09,34,11.80
2012,06,19,09,35,11.80
2012,06,19,09,36,11.80
2012,06,19,09,37,11.80
2012,06,19,09,38,11.80
2012,06,19,09,39,11.80
2012,06,19,09,40,11.90
2012,06,19,09,41,11.90
2012,06,19,09,42,11.90
2012,06,19,09,43,11.90
2012,06,19,09,44,12.00
2012,06,19,09,45,12.00
2012,06,19,09,46,12.10
2012,06,19,09,47,12.10
2012,06,19,09,48,12.20
2012,06,19,09,49,12.20
2012,06,19,09,50,12.20
2012,06,19,09,51,12.30
2012,06,19,09,52,12.30
2012,06,19,09,53,12.30
2012,06,19,09,54,12.30
2012,06,19,09,55,12.40
2012,06,19,09,56,12.40
2012,06,19,09,57,12.40
2012,06,19,09,58,12.40
2012,06,19,09,59,12.40
2012,06,19,10,00,12.40
2012,06,19,10,01,12.40
2012,06,19,10,02,12.40
2012,06,19,10,03,12.50
2012,06,19,10,04,12.50
2012,06,19,10,05,12.50
2012,06,19,10,06,12.60
2012,06,19,10,07,12.60
2012,06,19,10,08,12.70
2012,06,19,10,09,12.70
2012,06,19,10,10,12.80
2012,06,19,10,11,12.90
2012,06,19,10,12,13.00
2012,06,19,10,13,13.00
2012,06,19,10,14,13.10
2012,06,19,10,15,13.10
2012,06,19,10,16,13.10
2012,06,19,10,17,13.10
2012,06,19,10,18,13.10
2012,06,19,10,19,13.10
2012,06,19,10,20,13.00
2012,06,19,10,21,13.00
2012,06,19,10,22,13.00
2012,06,19,10,23,13.00
2012,06,19,10,24,13.00
2012,06,19,10,25,13.00
2012,06,19,10,26,13.10
2012,06,19,10,27,13.10
2012,06,19,10,28,13.10
2012,06,19,10,29,13.20
2012,06,19,10,30,13.20
2012,06,19,10,31,13.30
2012,06,19,10,32,13.40
2012,06,19,10,33,13.40
2012,06,19,10,34,13.50
2012,06,19,10,35,13.60
2012,06,19,10,36,13.60
2012,06,19,10,37,13.60
2012,06,19,10,38,13.60
2012,06,19,10,39,13.60
2012,06,19,10,40,13.60
2012,06,19,10,41,13.70
2012,06,19,10,42,13.70
2012,06,19,10,43,13.70
2012,06,19,10,44,13.80
2012,06,19,10,45,13.80
2012,06,19,10,46,13.90
2012,06,19,10,47,13.90
2012,06,19,10,48,14.00
2012,06,19,10,49,14.00
2012,06,19,10,50,14.00
2012,06,19,10,51,14.00
2012,06,19,10,52,14.00
2012,06,19,10,53,14.00
2012,06,19,10,54,14.00
2012,06,19,10,55,13.90
2012,06,19,10,56,13.90
2012,06,19,10,57,13.90
2012,06,19,10,58,13.90
2012,06,19,10,59,14.00
2012,06,19,11,00,14.10
2012,06,19,11,01,14.10
2012,06,19,11,02,14.10
2012,06,19,11,03,14.10
2012,06,19,11,04,14.10
2012,06,19,11,05,14.10
2012,06,19,11,06,14.10
2012,06,19,11,07,14.10
2012,06,19,11,08,14.00
2012,06,19,11,09,14.10
2012,06,19,11,10,14.10
2012,06,19,11,11,14.10
2012,06,19,11,12,14.20
2012,06,19,11,13,14.20
2012,06,19,11,14,14.30
2012,06,19,11,15,14.30
2012,06,19,11,16,14.30
2012,06,19,11,17,14.30
2012,06,19,11,18,14.30
2012,06,19,11,19,14.30
2012,06,19,11,20,14.30
2012,06,19,11,21,14.30
2012,06,19,11,22,14.20
2012,06,19,11,23,14.20
2012,06,19,11,24,14.10
2012,06,19,11,25,14.00
2012,06,19,11,26,14.00
2012,06,19,11,27,13.90
2012,06,19,11,28,13.80
2012,06,19,11,29,13.80
2012,06,19,11,30,13.70
2012,06,19,11,31,13.70
2012,06,19,11,32,13.80
2012,06,19,11,33,13.80
2012,06,19,11,34,13.90
2012,06,19,11,35,14.00
2012,06,19,11,36,14.10
2012,06,19,11,37,14.20
2012,06,19,11,38,14.30
2012,06,19,11,39,14.40
2012,06,19,11,40,14.50
2012,06,19,11,41,14.60
2012,06,19,11,42,14.70
2012,06,19,11,43,14.70
2012,06,19,11,44,14.60
2012,06,19,11,45,14.50
2012,06,19,11,46,14.40
2012,06,19,11,47,14.40
2012,06,19,11,48,14.30
2012,06,19,11,49,14.30
2012,06,19,11,50,14.30
2012,06,19,11,51,14.20
2012,06,19,11,52,14.20
2012,06,19,11,53,14.20
2012,06,19,11,54,14.20
2012,06,19,11,55,14.20
2012,06,19,11,56,14.20
2012,06,19,11,57,14.20
2012,06,19,11,58,14.20
2012,06,19,11,59,14.20
2012,06,19,12,00,14.20
2012,06,19,12,01,14.20
2012,06,19,12,02,14.10
2012,06,19,12,03,14.10
2012,06,19,12,04,14.10
2012,06,19,12,05,14.00
2012,06,19,12,06,13.90
2012,06,19,12,07,13.90
2012,06,19,12,08,13.90
2012,06,19,12,09,13.80
2012,06,19,12,10,13.70
2012,06,19,12,11,13.70
2012,06,19,12,12,13.70
2012,06,19,12,13,13.70
2012,06,19,12,14,13.70
2012,06,19,12,15,13.70
2012,06,19,12,16,13.80
2012,06,19,12,17,13.80
2012,06,19,12,18,13.80
2012,06,19,12,19,13.90
2012,06,19,12,20,13.90
2012,06,19,12,21,13.90
2012,06,19,12,22,13.90
2012,06,19,12,23,13.90
2012,06,19,12,24,14.00
2012,06,19,12,25,14.00
2012,06,19,12,26,14.10
2012,06,19,12,27,14.10
2012,06,19,12,28,14.00
2012,06,19,12,29,14.00
2012,06,19,12,30,14.00
2012,06,19,12,31,14.10
2012,06,19,12,32,14.10
2012,06,19,12,33,14.10
2012,06,19,12,34,14.10
2012,06,19,12,35,14.10
2012,06,19,12,36,14.10
2012,06,19,12,37,14.10
2012,06,19,12,38,14.20
2012,06,19,12,39,14.20
2012,06,19,12,40,14.20
2012,06,19,12,41,14.20
2012,06,19,12,42,14.30
2012,06,19,12,43,14.30
2012,06,19,12,44,14.30
2012,06,19,12,45,14.30
2012,06,19,12,46,14.30
2012,06,19,12,47,14.30
2012,06,19,12,48,14.20
2012,06,19,12,49,14.30
2012,06,19,12,50,14.30
2012,06,19,12,51,14.30
2012,06,19,12,52,14.30
2012,06,19,12,53,14.30
2012,06,19,12,54,14.30
2012,06,19,12,55,14.30
2012,06,19,12,56,14.30
2012,06,19,12,57,14.30
2012,06,19,12,58,14.30
2012,06,19,12,59,14.30
2012,06,19,13,00,14.30
2012,06,19,13,01,14.40
2012,06,19,13,02,14.40
2012,06,19,13,03,14.50
2012,06,19,13,04,14.50
2012,06,19,13,05,14.60
2012,06,19,13,06,14.70
2012,06,19,13,07,14.80
2012,06,19,13,08,14.90
2012,06,19,13,09,15.00
2012,06,19,13,10,15.10
2012,06,19,13,11,15.20
2012,06,19,13,12,15.20
2012,06,19,13,13,15.20
2012,06,19,13,14,15.20
2012,06,19,13,15,15.10
2012,06,19,13,16,15.00
2012,06,19,13,17,15.00
2012,06,19,13,18,14.90
2012,06,19,13,19,14.90
2012,06,19,13,20,14.90
2012,06,19,13,21,14.90
2012,06,19,13,22,14.80
2012,06,19,13,23,14.70
2012,06,19,13,24,14.70
2012,06,19,13,25,14.60
2012,06,19,13,26,14.60
2012,06,19,13,27,14.50
2012,06,19,13,28,14.50
2012,06,19,13,29,14.40
2012,06,19,13,30,14.40
2012,06,19,13,31,14.30
2012,06,19,13,32,14.30
2012,06,19,13,33,14.30
2012,06,19,13,34,14.30
2012,06,19,13,35,14.40
2012,06,19,13,36,14.40
2012,06,19,13,37,14.40
2012,06,19,13,38,14.50
2012,06,19,13,39,14.50
2012,06,19,13,40,14.60
2012,06,19,13,41,14.60
2012,06,19,13,42,14.70
2012,06,19,13,43,14.70
2012,06,19,13,44,14.70
2012,06,19,13,45,14.70
2012,06,19,13,46,14.80
2012,06,19,13,47,14.70
2012,06,19,13,48,14.70
2012,06,19,13,49,14.70
2012,06,19,13,50,14.70
2012,06,19,13,51,14.70
2012,06,19,13,52,14.70
2012,06,19,13,53,14.70
2012,06,19,13,54,14.80
2012,06,19,13,55,14.80
2012,06,19,13,56,14.90
2012,06,19,13,57,14.90
2012,06,19,13,58,14.90
2012,06,19,13,59,14.90
2012,06,19,14,00,14.90
2012,06,19,14,01,14.90
2012,06,19,14,02,14.80
2012,06,19,14,03,14.80
2012,06,19,14,04,14.90
2012,06,19,14,05,14.90
2012,06,19,14,06,15.00
2012,06,19,14,07,15.10
2012,06,19,14,08,15.20
2012,06,19,14,09,15.30
2012,06,19,14,10,15.40
2012,06,19,14,11,15.50
2012,06,19,14,12,15.60
2012,06,19,14,13,15.70
2012,06,19,14,14,15.80
2012,06,19,14,15,15.90
2012,06,19,14,16,16.00
2012,06,19,14,17,16.00
2012,06,19,14,18,16.00
2012,06,19,14,19,16.10
2012,06,19,14,20,16.10
2012,06,19,14,21,16.10
2012,06,19,14,22,16.10
2012,06,19,14,23,16.10
2012,06,19,14,24,16.10
2012,06,19,14,25,16.10
2012,06,19,14,26,16.10
2012,06,19,14,27,16.10
2012,06,19,14,28,16.00
2012,06,19,14,29,16.00
2012,06,19,14,30,15.90
2012,06,19,14,31,15.90
2012,06,19,14,32,16.00
2012,06,19,14,33,16.10
2012,06,19,14,34,16.10
2012,06,19,14,35,16.10
2012,06,19,14,36,16.00
2012,06,19,14,37,16.00
2012,06,19,14,38,16.00
2012,06,19,14,39,16.00
2012,06,19,14,40,16.10
2012,06,19,14,41,16.10
2012,06,19,14,42,16.10
2012,06,19,14,43,16.10
2012,06,19,14,44,16.20
2012,06,19,14,45,16.20
2012,06,19,14,46,16.10
2012,06,19,14,47,16.00
2012,06,19,14,48,15.90
2012,06,19,14,49,15.90
2012,06,19,14,50,15.90
2012,06,19,14,51,15.90
2012,06,19,14,52,15.90
2012,06,19,14,53,15.90
2012,06,19,14,54,16.00
2012,06,19,14,55,15.90
2012,06,19,14,56,15.90
2012,06,19,14,57,16.00
2012,06,19,14,58,16.10
2012,06,19,14,59,16.10
2012,06,19,15,00,16.20
2012,06,19,15,01,16.20
2012,06,19,15,02,16.20
2012,06,19,15,03,16.20
2012,06,19,15,04,16.20
2012,06,19,15,05,16.20
2012,06,19,15,06,16.30
2012,06,19,15,07,16.30
2012,06,19,15,08,16.40
2012,06,19,15,09,16.30
2012,06,19,15,10,16.20
2012,06,19,15,11,16.10
2012,06,19,15,12,16.10
2012,06,19,15,13,16.10
2012,06,19,15,14,16.20
2012,06,19,15,15,16.30
2012,06,19,15,16,16.40
2012,06,19,15,17,16.40
2012,06,19,15,18,16.30
2012,06,19,15,19,16.30
2012,06,19,15,20,16.30
2012,06,19,15,21,16.40
2012,06,19,15,22,16.40
2012,06,19,15,23,16.30
2012,06,19,15,24,16.30
2012,06,19,15,25,16.20
2012,06,19,15,26,16.20
2012,06,19,15,27,16.20
2012,06,19,15,28,16.20
2012,06,19,15,29,16.20
2012,06,19,15,30,16.30
2012,06,19,15,31,16.30
2012,06,19,15,32,16.20
2012,06,19,15,33,16.20
2012,06,19,15,34,16.20
2012,06,19,15,35,16.10
2012,06,19,15,36,16.00
2012,06,19,15,37,16.00
2012,06,19,15,38,15.90
2012,06,19,15,39,15.90
2012,06,19,15,40,15.90
2012,06,19,15,41,15.90
2012,06,19,15,42,15.90
2012,06,19,15,43,15.90
2012,06,19,15,44,15.90
2012,06,19,15,45,15.80
2012,06,19,15,46,15.80
2012,06,19,15,47,15.70
2012,06,19,15,48,15.60
2012,06,19,15,49,15.50
2012,06,19,15,50,15.40
2012,06,19,15,51,15.40
2012,06,19,15,52,15.40
2012,06,19,15,53,15.30
2012,06,19,15,54,15.30
2012,06,19,15,55,15.30
2012,06,19,15,56,15.30
2012,06,19,15,57,15.30
2012,06,19,15,58,15.30
2012,06,19,15,59,15.30
2012,06,19,16,00,15.20
2012,06,19,16,01,15.20
2012,06,19,16,02,15.10
2012,06,19,16,03,15.00
2012,06,19,16,04,14.90
2012,06,19,16,05,14.90
2012,06,19,16,06,14.80
2012,06,19,16,07,14.80
2012,06,19,16,08,14.70
2012,06,19,16,09,14.70
2012,06,19,16,10,14.60
2012,06,19,16,11,14.60
2012,06,19,16,12,14.50
2012,06,19,16,13,14.50
2012,06,19,16,14,14.40
2012,06,19,16,15,14.40
2012,06,19,16,16,14.40
2012,06,19,16,17,14.30
2012,06,19,16,18,14.30
2012,06,19,16,19,14.30
2012,06,19,16,20,14.30
2012,06,19,16,21,14.30
2012,06,19,16,22,14.30
2012,06,19,16,23,14.30
2012,06,19,16,24,14.30
2012,06,19,16,25,14.30
2012,06,19,16,26,14.40
2012,06,19,16,27,14.40
2012,06,19,16,28,14.40
2012,06,19,16,29,14.40
2012,06,19,16,30,14.40
2012,06,19,16,31,14.40
2012,06,19,16,32,14.40
2012,06,19,16,33,14.40
2012,06,19,16,34,14.30
2012,06,19,16,35,14.30
2012,06,19,16,36,14.30
2012,06,19,16,37,14.30
2012,06,19,16,38,14.20
2012,06,19,16,39,14.20
2012,06,19,16,40,14.10
2012,06,19,16,41,14.10
2012,06,19,16,42,14.10
2012,06,19,16,43,14.10
2012,06,19,16,44,14.00
2012,06,19,16,45,14.10
2012,06,19,16,46,14.10
2012,06,19,16,47,14.10
2012,06,19,16,48,14.10
2012,06,19,16,49,14.10
2012,06,19,16,50,14.10
2012,06,19,16,51,14.20
2012,06,19,16,52,14.20
2012,06,19,16,53,14.20
2012,06,19,16,54,14.20
2012,06,19,16,55,14.20
2012,06,19,16,56,14.10
2012,06,19,16,57,14.10
2012,06,19,16,58,14.10
2012,06,19,16,59,14.10
2012,06,19,17,00,14.00
2012,06,19,17,01,14.00
2012,06,19,17,02,13.90
2012,06,19,17,03,13.90
2012,06,19,17,04,13.90
2012,06,19,17,05,13.90
2012,06,19,17,06,13.90
2012,06,19,17,07,13.90
2012,06,19,17,08,14.00
2012,06,19,17,09,14.00
2012,06,19,17,10,14.10
2012,06,19,17,11,14.10
2012,06,19,17,12,14.10
2012,06,19,17,13,14.10
2012,06,19,17,14,14.20
2012,06,19,17,15,14.20
2012,06,19,17,16,14.20
2012,06,19,17,17,14.20
2012,06,19,17,18,14.20
2012,06,19,17,19,14.20
2012,06,19,17,20,14.20
2012,06,19,17,21,14.30
2012,06,19,17,22,14.30
2012,06,19,17,23,14.30
2012,06,19,17,24,14.40
2012,06,19,17,25,14.40
2012,06,19,17,26,14.50
2012,06,19,17,27,14.50
2012,06,19,17,28,14.50
2012,06,19,17,29,14.60
2012,06,19,17,30,14.60
2012,06,19,17,31,14.60
2012,06,19,17,32,14.60
2012,06,19,17,33,14.60
2012,06,19,17,34,14.60
2012,06,19,17,35,14.60
2012,06,19,17,36,14.60
2012,06,19,17,37,14.60
2012,06,19,17,38,14.50
2012,06,19,17,39,14.50
2012,06,19,17,40,14.40
2012,06,19,17,41,14.40
2012,06,19,17,42,14.40
2012,06,19,17,43,14.40
2012,06,19,17,44,14.40